This is the latest recevied weather packets stored in our database for station/object DG3RAP-11. If no packets are shown the sender has not sent any weather packets the latest 10 day(s).
| Time | Temp. | Humidity | Pressure | Rain* | Wind** | Luminosity | Snow |
|---|---|---|---|---|---|---|---|
| 1777385343 | 18.89° C | 30% | 1017.2 hPa | 0 mm | - | - | - |
| 1777384803 | 18.89° C | 29% | 1017.2 hPa | 0 mm | - | - | - |
| 1777384443 | 19.44° C | 30% | 1017 hPa | 0 mm | - | - | - |
| 1777383903 | 19.44° C | 29% | 1017.2 hPa | 0 mm | - | - | - |
| 1777383363 | 18.89° C | 29% | 1017.2 hPa | 0 mm | - | - | - |
| 1777382823 | 18.89° C | 31% | 1017.4 hPa | 0 mm | - | - | - |
| 1777382284 | 18.89° C | 30% | 1017.2 hPa | 0 mm | - | - | - |
| 1777381743 | 18.89° C | 31% | 1017.5 hPa | 0 mm | - | - | - |
| 1777381203 | 19.44° C | 33% | 1017.6 hPa | 0 mm | - | - | - |
| 1777380843 | 18.33° C | 31% | 1017.7 hPa | 0 mm | - | - | - |
| 1777380304 | 18.89° C | 31% | 1017.5 hPa | 0 mm | - | - | - |
| 1777379763 | 19.44° C | 30% | 1017.7 hPa | 0 mm | - | - | - |
| 1777379223 | 18.89° C | 31% | 1017.8 hPa | 0 mm | - | - | - |
| 1777378683 | 18.33° C | 30% | 1017.9 hPa | 0 mm | - | - | - |
| 1777378143 | 18.33° C | 29% | 1017.8 hPa | 0 mm | - | - | - |
| 1777377604 | 18.33° C | 34% | 1017.9 hPa | 0 mm | - | - | - |
| 1777377243 | 18.33° C | 33% | 1017.9 hPa | 0 mm | - | - | - |
| 1777376703 | 18.89° C | 30% | 1017.9 hPa | 0 mm | - | - | - |
| 1777376164 | 18.33° C | 33% | 1017.8 hPa | 0 mm | - | - | - |
| 1777375624 | 18.33° C | 33% | 1018 hPa | 0 mm | - | - | - |
| 1777375083 | 17.78° C | 34% | 1018 hPa | 0 mm | - | - | - |
| 1777374543 | 17.78° C | 33% | 1018 hPa | 0 mm | - | - | - |
| 1777374003 | 17.22° C | 34% | 1018.3 hPa | 0 mm | - | - | - |
| 1777373643 | 17.78° C | 32% | 1018.2 hPa | 0 mm | - | - | - |
| 1777373103 | 17.78° C | 33% | 1018.2 hPa | 0 mm | - | - | - |
* Rain latest hour (hover to see other rain measurements)
** Current wind speed in m/s (hover to see current wind gust speed)